Location: �anc�
(47.8221°N, 1.2443°W)
Time: 13:04:18
(UTC+00:00)

Daily predictions for brighter satellites

Satellite Brightness Start Highest point End
(mag) Time Altitude Azimuth Time Altitude Azimuth Time Altitude Azimuth
Cosmos 2034 Rocket 4.4 19:25:37 10° SSW 19:31:49 73° W 19:38:09 10° N
Cosmos 1726 Rocket 4.1 19:33:14 10° SSW 19:37:34 64° WNW 19:41:54 10° N
Cosmos 1980 4.1 19:32:18 10° NNW 19:37:52 52° ENE 19:43:25 10° SE
Cosmos 2360 Rocket 4.5 19:33:23 10° NW 19:37:53 25° WSW 19:42:22 10° SSW
SL-16 R/B 3.7 19:33:34 10° N 19:38:05 23° NE 19:42:34 10° E
Cosmos 2026 Rocket 4.0 19:32:41 10° N 19:38:47 74° E 19:44:55 10° SSE
Cosmos 2151 4.3 19:36:48 10° NNE 19:40:16 23° ENE 19:43:44 10° ESE
SME Rocket 3.4 19:36:31 10° NNE 19:40:29 86° WNW 19:45:44 10° SSW
USA 215 4.1 19:36:13 10° E 19:42:22 46° NNE 19:48:33 10° NW
FALCON 9 DEB 4.4 19:41:02 10° S 19:43:15 18° SE 19:45:28 10° E
SPOT 3 Rocket 4.5 19:41:23 10° SE 19:45:56 32° ENE 19:50:30 10° N
Cosmos 1455 2.2 19:43:14 10° S 19:46:59 82° W 19:50:44 10° N
Meteor 2-10 Rocket 4.2 19:42:25 10° SSW 19:47:41 64° WNW 19:53:13 10° N
COSMOS 2455 4.3 19:44:28 10° SE 19:47:54 16° ESE 19:51:21 10° ENE
SL-4 R/B 3.1 19:46:27 10° SSW 19:50:06 27° SE 19:53:58 10° E
ATLAS 5 CENTAUR R/B 4.4 19:47:13 10° WNW 19:50:09 17° NNW 19:53:22 10° NNE
IRS-1A Rocket 4.4 19:45:42 10° SSE 19:51:14 68° ENE 19:56:56 10° N
Cosmos 2219 Rocket 3.2 19:47:06 10° NW 19:52:32 47° WSW 19:57:56 10° S
BREEZE-M DEB (TANK) 4.2 19:52:28 10° WSW 19:53:52 13° SSW 19:55:32 10° S
USA 186 2.5 19:50:50 10° S 19:54:03 53° W 19:57:06 10° NNW
CZ-4 R/B 4.4 19:51:19 10° SW 19:54:07 17° W 19:56:55 10° NW
Cosmos 1076 Rocket 3.6 19:52:25 10° N 19:56:44 57° ENE 20:00:57 10° SSE
COSMOS 2428 3.5 19:51:16 10° NW 19:56:50 52° WSW 20:02:21 10° S
IGS 5A 4.5 19:54:20 11° SE 19:57:50 29° ENE 20:01:27 10° N
ATLAS 5 CENTAUR R/B 2.3 19:56:36 10° WNW 19:58:14 25° SW 20:00:22 10° SSE
OBJECT-B 1.0 19:55:32 10° S 19:58:45 75° W 20:02:00 10° NNW
Meteor 2-1 Rocket 4.3 19:55:16 10° S 20:01:08 83° E 20:07:06 10° NNE
Cosmos 44 4.0 19:57:29 10° SW 20:02:37 66° NW 20:08:01 10° NE
Cosmos 1634 Rocket 4.1 19:56:55 10° S 20:03:12 87° W 20:09:28 10° N
Cosmos 2292 Rocket 4.3 19:56:42 10° N 20:03:15 63° ENE 20:08:05 10° SSE
Cosmos 1356 3.3 20:01:12 10° N 20:04:38 88° E 20:08:02 10° S
Cosmos 2344 3.6 19:57:21 10° SW 20:04:50 87° SE 20:12:51 10° NE
Cosmos 407 Rocket 3.8 20:01:45 10° S 20:06:36 45° ESE 20:11:32 10° NNE
ARIANE 5 R/B 4.3 20:04:04 11° ESE 20:06:45 19° ENE 20:09:48 10° NNE
Orbus 7S? 3.6 20:08:06 10° WSW 20:10:55 68° NNW 20:16:14 10° NE
IRIDIUM 104 4.4 20:06:00 10° SSE 20:11:05 57° E 20:16:12 10° N
Meteor 2-3 Rocket 4.2 20:07:36 10° N 20:13:09 45° ENE 20:17:47 14° SE
RESURS DK-1 3.9 20:09:56 10° SW 20:13:50 40° NW 20:17:48 10° NNE
Cosmos 2058 Rocket 4.4 20:10:21 10° SSW 20:14:30 43° WNW 20:18:41 10° N
Cosmos 405 Rocket 3.1 20:12:49 10° NNW 20:16:48 67° W 20:20:40 10° S
NOSS 0 Rocket 4.4 20:11:43 10° NW 20:17:52 63° WSW 20:24:00 10° SSE
Cosmos 1140 Rocket 3.6 20:14:55 10° S 20:19:50 51° ESE 20:24:49 10° NNE
IRIDIUM 114 4.3 20:15:03 10° S 20:20:12 68° E 20:25:25 10° N
Cosmos 1812 Rocket 3.5 20:17:31 10° S 20:21:56 68° E 20:26:24 10° NNE
CZ-2C R/B 4.3 20:20:46 10° NNE 20:24:48 33° E 20:27:43 16° SSE
Cosmos 2237 Rocket 2.3 20:20:06 10° NNW 20:25:46 79° WSW 20:30:47 13° SSE
Timation 2 Rocket 4.2 20:20:21 10° S 20:26:41 52° ESE 20:32:47 10° NE
Meteor 2-21 4.4 20:22:10 10° N 20:28:15 76° E 20:34:06 11° SSE
Abrixas rocket 0.9 20:26:58 10° W 20:28:20 56° WNW 20:28:20 56° WNW
Cosmos 1825 4.2 20:25:47 10° NNW 20:29:02 28° W 20:32:17 10° SSW
IRIDIUM 103 4.3 20:24:08 10° S 20:29:20 81° E 20:34:35 10° N
Cosmos 1818 4.5 20:24:10 10° WSW 20:29:29 53° NW 20:34:52 10° NNE
Cosmos 2180 Rocket 4.4 20:23:26 10° S 20:29:34 75° E 20:35:42 10° NNE
BREEZE M DEB (TANK) 2.8 20:24:32 10° WSW 20:33:56 78° SSE 20:36:33 14° ENE
Cosmos 1766 Rocket 4.4 20:30:30 10° N 20:34:28 34° ENE 20:36:22 23° ESE
Spot 2 Rocket 4.2 20:32:07 20° ESE 20:35:04 38° ENE 20:39:44 10° N
FALCON 9 DEB 2.8 20:37:10 10° SW 20:40:10 54° SSE 20:41:37 26° E
Cosmos 1633 2.6 20:37:17 10° NNW 20:40:53 78° W 20:43:19 19° S
Cosmos 2227 Rocket 2.2 20:35:50 10° SSW 20:41:25 64° ESE 20:47:02 10° NNE
Cosmos 2082 4.2 20:37:15 13° SSE 20:41:44 35° ESE 20:46:47 10° NE
Okean 3 Rocket 4.1 20:39:22 10° N 20:43:41 42° ENE 20:45:39 27° SE
FALCON 9 DEB 2.6 20:41:46 10° SW 20:44:46 70° SSE 20:46:28 23° ENE
Cosmos 1655 Rocket 4.0 20:39:08 10° N 20:45:27 87° E 20:50:54 14° S
Lacrosse 5 rocket 3.3 20:42:14 10° NW 20:45:46 25° N 20:49:28 10° ENE
Cosmos 2297 Rocket 2.2 20:42:25 10° SSW 20:48:04 89° ESE 20:53:47 10° NNE
Cosmos 1869 3.8 20:47:59 31° SE 20:49:04 38° E 20:52:44 10° NNE
Resurs 01 Rocket 1.8 20:46:10 16° S 20:49:42 71° WSW 20:54:10 10° NNW
Genesis I 3.6 20:46:38 10° NW 20:50:36 60° SW 20:52:33 28° SSE
Meteor 1-4 Rocket 3.1 20:50:30 33° ESE 20:50:41 33° E 20:53:54 10° NNE
ATLAS 2AS CENTAUR R/B 4.4 20:43:40 10° W 20:51:00 40° NNW 20:58:08 10° NE
FALCON 9 DEB 2.7 20:53:47 10° WSW 20:56:49 89° NW 20:58:12 29° ENE
Cosmos 2219 3.2 20:51:43 10° SSW 20:57:20 86° WNW 21:03:00 10° NNE
Cosmos 389 Rocket 4.4 20:54:10 10° SW 20:57:21 31° WNW 21:00:35 10° N
Cosmos 2084 Rocket 3.2 20:56:26 10° SW 21:00:24 90° WSW 21:04:29 10° NE
Cosmos 1763 Rocket 3.9 20:57:25 10° NNW 21:02:18 46° ENE 21:04:17 31° ESE
Cosmos 1190 Rocket 4.1 20:59:03 10° SSW 21:04:17 80° WNW 21:09:32 10° NNE
Terra 2.8 21:03:52 26° E 21:05:16 32° ENE 21:09:29 10° N
Meteor 2-8 Rocket 4.5 21:02:57 21° SSE 21:07:04 62° E 21:13:07 10° NNE
BREEZE-M DEB (TANK) 2.3 21:06:53 10° W 21:08:46 43° SW 21:08:46 43° SW
SPOT 5 3.1 21:14:08 38° ESE 21:15:29 52° ENE 21:20:12 10° N
NOSS 3-1 (C) 4.2 21:08:17 10° NW 21:15:32 65° NE 21:20:23 27° ESE
Cosmos-2242 3.5 21:12:34 12° SSW 21:16:32 58° WNW 21:20:48 10° N
SPOT 1/Viking Rocket 3.6 21:14:17 28° S 21:17:08 77° WSW 21:22:24 10° NNW
Cosmos 2151 4.3 21:13:42 10° NNW 21:17:40 37° W 21:20:45 15° SSW
FALCON 9 DEB 2.9 21:15:40 10° WSW 21:18:44 73° NNW 21:18:54 70° N
Cosmos 1842 Rocket 4.2 21:20:26 37° E 21:20:31 37° E 21:24:39 10° NNE
Cosmos 676 Rocket 3.9 21:17:30 10° SSW 21:22:42 90° WNW 21:27:55 10° NNE
SL-16 R/B 2.2 21:17:09 10° NNW 21:22:52 78° WSW 21:25:19 35° SSE
USA 215 3.2 21:21:35 31° ESE 21:25:03 87° NNE 21:31:38 10° NW
SL-4 R/B 2.2 21:24:55 10° WSW 21:29:23 87° NNW 21:33:32 13° ENE
COSMOS 2455 2.7 21:26:55 10° SSW 21:32:56 84° ESE 21:39:00 10° NE
Cosmos 1408 Rocket 3.4 21:29:57 10° N 21:34:18 72° E 21:34:52 62° SE
ERS-1 Rocket 2.9 21:33:52 47° SSE 21:35:20 82° ENE 21:40:23 10° NNW
Cosmos 1862 3.2 21:37:35 10° N 21:41:30 69° ENE 21:41:30 69° ENE
Cosmos 2221 2.5 21:41:54 60° E 21:41:54 60° E 21:46:03 10° NNE
ARIANE 5 R/B 3.0 21:41:36 41° SSW 21:42:49 56° W 21:47:09 10° NNW
USA 245 4.2 21:43:09 32° WSW 21:43:33 33° W 21:46:23 10° NW
Meteor 2-15 Rocket 4.3 21:43:55 42° SSE 21:46:00 71° E 21:52:03 10° NNE
Timation 1 Rocket 4.4 21:41:55 10° SW 21:47:52 76° WNW 21:53:53 10° NNE
Cosmos 1943 3.7 21:43:14 10° NNW 21:48:42 48° NE 21:50:06 39° E
Cosmos 1745 Rocket 4.3 21:45:51 10° N 21:52:00 50° ENE 21:53:25 43° ESE
Cosmos 1743 Rocket 3.6 21:48:50 10° N 21:53:02 60° ENE 21:53:02 60° ENE
SeaSat 1 4.4 21:50:01 10° ENE 21:51:18 15° ENE 21:51:18 15° ENE
Cosmos 44 Rocket 3.7 21:54:02 10° SW 21:59:06 69° NW 22:04:20 10° NE
TSX-5 4.2 22:01:04 39° SW 22:02:40 72° WNW 22:06:36 10° NNE
Cosmos 1606 4.0 22:06:55 31° NE 22:06:55 31° NE 22:09:08 10° NNE
Cosmos 1741 Rocket 3.9 22:05:12 63° S 22:06:04 82° ESE 22:11:23 10° NNE
CRYOSAT 2 4.3 22:05:43 68° SSW 22:06:21 82° W 22:11:17 10° N
S3M 4.2 22:05:25 50° SE 22:06:26 55° E 22:12:39 10° NNE
BREEZE-M DEB (TANK) 3.2 21:58:40 10° WNW 22:06:19 65° SW 22:06:19 65° SW
Cosmos 1850 Rocket 3.9 22:08:07 61° SSW 22:09:03 89° SE 22:14:21 10° NNE
Cosmos 1500 Rocket 3.5 22:06:43 10° N 22:11:06 84° NW 22:11:06 84° NW
Cosmos 2263 Rocket 2.1 22:16:15 64° ESE 22:16:15 64° ESE 22:21:43 10° NNE
Aureole 1 Rocket 3.3 22:17:34 72° S 22:18:09 86° ESE 22:22:43 10° NNE
SL-08 R/B 4.5 22:14:42 10° NNW 22:20:53 76° W 22:22:23 53° SSW
H-2A R/B 3.8 22:17:02 10° N 22:21:10 63° WNW 22:21:10 63° WNW
Cosmos 1386 Rocket 4.3 22:15:24 10° N 22:21:28 78° E 22:22:21 65° SE
USA 229 DEB 3.8 22:17:37 10° NW 22:24:56 85° SW 22:27:01 53° SSE
USA 229 3.8 22:17:42 10° NW 22:25:02 86° SW 22:27:07 53° SSE
Lacrosse 5 rocket 2.0 22:21:23 10° NW 22:25:34 54° NNE 22:25:34 54° NNE
Cosmos 2227 Rocket 4.2 22:21:11 10° WSW 22:25:56 27° NW 22:30:43 10° N
Cosmos 2208 Rocket 3.9 22:27:15 10° NNW 22:32:37 77° ENE 22:32:47 77° E
Cosmos 1553 Rocket 4.1 22:33:03 48° SW 22:34:42 69° W 22:40:49 10° N
ALOS 2 4.1 22:35:37 27° NE 22:35:37 27° NE 22:38:50 10° N
Cosmos 841 Rocket 3.6 22:31:09 10° NNW 22:36:17 61° WSW 22:36:20 61° WSW
Cosmos 1603 3.6 22:31:50 10° NNW 22:37:34 76° WSW 22:37:52 73° SW
Intercosmos 24 4.4 22:42:56 74° WNW 22:42:56 74° WNW 22:46:57 10° N
NOSS 3-1 (A) 4.0 22:35:26 10° NW 22:42:55 77° SW 22:45:03 54° SSE
Terra 2.9 22:42:44 34° WSW 22:42:58 35° W 22:47:20 10° NNW
Cosmos 921 Rocket 4.0 22:45:43 10° NNW 22:49:08 43° WNW 22:49:08 43° WNW
Cosmos 540 Rocket 4.3 22:46:52 10° NW 22:51:30 40° W 22:51:30 40° W
Cosmos 1814 Rocket 4.2 22:46:57 10° NNW 22:51:58 63° W 22:51:58 63° W
Meteor 2-17 Rocket 4.3 22:48:57 10° N 22:55:09 84° E 22:55:34 78° SE
Cosmos 1437 Rocket 4.4 23:05:15 31° N 23:05:15 31° N 23:07:25 10° N
SL-16 R/B 4.5 23:03:43 10° WNW 23:05:59 12° W 23:07:12 12° WSW
USA 215 4.2 23:08:55 32° WSW 23:08:55 32° WSW 23:14:19 10° WNW
SL-4 R/B 3.0 23:04:53 10° W 23:09:10 52° NNW 23:09:10 52° NNW
Cosmos 2184 Rocket 4.5 23:08:25 10° N 23:14:32 47° ENE 23:14:58 47° E
Cosmos 2315 Rocket 3.9 23:16:01 80° SSW 23:16:25 88° W 23:22:50 10° N
Meteor 1-25 Rocket 4.4 23:13:22 10° NNW 23:19:00 62° W 23:19:00 62° W
Sich 1 4.4 23:15:34 10° NNW 23:18:26 33° NW 23:18:26 33° NW
ATLAS 5 CENTAUR R/B 3.9 23:18:37 10° NNW 23:23:07 28° NNE 23:27:06 15° E
SeaSat 1 2.8 23:26:38 10° NNE 23:31:05 63° NNW 23:31:05 63° NNW
Cosmos 1943 4.4 23:27:40 10° NW 23:31:55 30° W 23:31:55 30° W
Iridium 4 Rocket 3.8 23:38:02 64° NNW 23:38:02 64° NNW 23:42:45 10° N
Cosmos 1844 4.3 23:41:40 47° ENE 23:41:40 47° ENE 23:46:07 10° NE
Cosmos 1633 Rocket 4.4 23:36:30 10° NNW 23:39:17 35° NW 23:39:17 35° NW
Cosmos 2074 Rocket 3.9 23:34:46 10° N 23:41:04 75° E 23:41:12 75° E
Meteor 1-26 Rocket 4.4 23:42:09 67° WNW 23:42:11 67° WNW 23:47:59 10° N
USA 281 3.8 23:43:08 39° E 23:44:58 49° NE 23:51:15 10° NNW
